Simultaneous Nadir Overpasses (SNOs) Predictions

Prediction of SNOs between NOAA-19 and TERRA Satellite Orbit:

Table of predicted SNOs for the next 14.0 days since TLE Epoch: 8/3/2019
Index Date (NOAA-19) Time (NOAA-19) Lat,Lon (NOAA-19) SZA (NOAA-19 ) Date (TERRA) Time (TERRA) Lat,Lon (TERRA) SZA (TERRA ) Distance(km) Time Diff (sec)
1 08/04/2019 05:58:27 78.63, 113.26 62.11 08/04/2019 05:58:50 78.61, 113.26 62.10 2.20 23
2 08/04/2019 06:49:24 -78.58, -79.12 117.90 08/04/2019 06:48:17 -78.62, -79.08 117.89 4.09 67
3 08/06/2019 11:31:49 -78.64,-150.07 117.28 08/06/2019 11:32:34 -78.63,-150.10 117.28 2.08 45
4 08/06/2019 12:22:51 78.61, 17.37 62.73 08/06/2019 12:22:00 78.62, 17.52 62.73 3.44 51
5 08/08/2019 17:05:16 78.66, -53.47 63.37 08/08/2019 17:06:17 78.63, -53.52 63.35 3.74 61
6 08/08/2019 17:56:12 -78.61, 114.15 116.64 08/08/2019 17:55:44 -78.64, 114.16 116.63 2.90 28
7 08/10/2019 23:29:40 78.65,-149.39 64.03 08/10/2019 23:29:27 78.64,-149.28 64.02 2.90 13
8 08/13/2019 05:03:00 -78.65, -52.62 115.30 08/13/2019 05:03:11 -78.65, -52.64 115.29 0.64 11
9 08/15/2019 10:36:27 78.66, 44.01 65.41 08/15/2019 10:36:53 78.64, 43.89 65.40 3.26 26




NCC Satellite Simultaneous Nadir Overpasses (SNOs) Prediction Service
